Regional Weather Roundup
Issued by NWS

Home | Current Version | Previous Version | Graphics & Text | Print | Product List | Glossary On
Versions: 1 2 3 4 5 6 7 8 9 10 11 12 13 14 15 16 17 18 19 20 21 22 23 24 25 26 27 28 29 30 31 32 33 34 35 36 37 38 39 40 41 42 43 44 45 46 47 48 49 50
000
ASUS45 KCYS 230410
RWRWY

WYOMING REGIONAL WEATHER ROUNDUP
NATIONAL WEATHER SERVICE CHEYENNE WY
900 PM MST SAT NOV 22 2014

NOTE:  "FAIR" INDICATES FEW OR NO CLOUDS BELOW 12,000 FEET
WITH NO SIGNIFICANT WEATHER AND/OR OBSTRUCTIONS TO VISIBILITY.

WYZ001-230500-
YELLOWSTONE NATIONAL PARK

CITY           SKY/WX    TMP DP  RH WIND       PRES   REMARKS
LK YELLOWSTONE   N/A     15   9  76 NW5       29.71R WCI   8
W YELLOWSTONE  NOT AVBL

$$
WYZ002>013-054>058-071-098>099-230500-
NORTHERN WYOMING

CITY           SKY/WX    TMP DP  RH WIND       PRES   REMARKS
JACKSON        PTCLDY    25  16  68 SE10      29.73R WCI  15
CODY           CLEAR     37  10  32 W12G21    29.58S WCI  30
GREYBULL       PTCLDY    25  22  88 W8        29.60R WCI  16
WORLAND        MOCLDY    34  30  85 S10       29.61R WCI  26
SHERIDAN       MOCLDY    35  24  64 W8        29.56R WCI  29
BUFFALO        CLOUDY    38  25  59 NW21G31   29.54R WCI  28
GILLETTE       CLOUDY    37  23  56 NW14      29.53R WCI  28
HULETT           N/A    N/A N/A N/A MISG        N/A
NEWCASTLE      LGT RAIN  36  32  87 NW22G28   29.51R WCI  24

$$
WYZ014>020-022>026-101>103-230500-
CENTRAL WYOMING

CITY           SKY/WX    TMP DP  RH WIND       PRES   REMARKS
BIG PINEY      LGT RAIN  39  25  57 NW15G24   29.73S WCI  31
PINEDALE       MOCLDY    21  18  86 W5        29.73R WCI  15
DUBOIS         FAIR      25  12  58 W22       29.69R WCI  10
LANDER         NOT AVBL
RIVERTON       CLOUDY    35  18  49 W18       29.63R WCI  24
CASPER         CLOUDY    36  29  75 N8        29.58R WCI  30
DOUGLAS        CLOUDY   N/A N/A N/A W22G29    29.51R

$$
WYZ021-027>030-104>119-230500-
SOUTHERN WYOMING

CITY           SKY/WX    TMP DP  RH WIND       PRES   REMARKS
EVANSTON       CLOUDY    28  25  88 W10       29.83R WCI  19
KEMMERER       FLURRIES  28  27  93 W10       29.79S WCI  19
FORT BRIDGER   MOCLDY    31  28  90 W14G21    29.83R WCI  21
ROCK SPRINGS   CLOUDY    30  25  81 W32G39    29.72R WCI  14
DIXON          FLURRIES  33  32  95 SW10      29.76F WCI  25
RAWLINS        CLOUDY    33  28  81 W23       29.64F WCI  21
SARATOGA       CLOUDY    34  28  80 SW22G29   29.66F WCI  22
LARAMIE        CLOUDY    31  29  92 SW14G22   29.63S WCI  21
CHEYENNE       PTCLDY    41  25  53 W15       29.60R
TORRINGTON     CLEAR     43  28  55 W10       29.49F
PINE BLUFFS    FAIR      34  25  69 W10       29.55R WCI  26

$$


USA.gov is the U.S. government's official web portal to all federal, state and local government web resources and services.